DW9936 Weather Reports


time (UTC)temp
F
wind
direction
speed
knots
gust
knots
rain 1hr
in
rain 24hr
in
rain mn
in
humidity
%
barometer
mb
20260502123017 76 142 0.0 3.5 0.00 0.00 0.00 29 1022.1
20260502121513 76 284 0.0 3.5 0.00 0.00 0.00 31 1022.4
20260502114510 76 112 0.0 4.3 0.00 0.00 0.00 30 1022.7
20260502113006 75 321 0.0 2.6 0.00 0.00 0.00 32 1023.0
20260502111503 74 148 0.0 1.7 0.00 0.00 0.00 32 1023.2
20260502110001 74 210 0.0 2.6 0.00 0.00 0.00 31 1023.4
20260502104558 73 245 0.0 3.5 0.00 0.00 0.00 33 1023.5
20260502103056 73 107 0.9 4.3 0.00 0.00 0.00 34 1023.7
20260502101601 73 98 0.0 3.5 0.00 0.00 0.00 33 1023.9
20260502071509 64 155 0.0 0.9 0.00 0.00 0.00 52 1025.5
20260502070005 61 105 0.0 0.9 0.00 0.00 0.00 54 1025.6
20260502064601 60 189 0.0 0.9 0.00 0.00 0.00 56 1025.6
20260502063057 59 185 0.0 0.9 0.00 0.00 0.00 58 1025.7
20260502061551 57 129 0.0 0.9 0.00 0.00 0.00 59 1025.8
20260502060053 54 124 0.0 0.9 0.00 0.00 0.00 62 1025.8
20260502054543 52 44 0.0 0.9 0.00 0.00 0.00 65 1025.8
20260502053040 50 42 0.0 0.0 0.00 0.00 0.00 71 1025.9
20260502051537 48 355 0.0 0.9 0.00 0.00 0.00 74 1026.0
20260502050042 46 355 0.0 0.0 0.00 0.00 0.00 78 1025.9
20260502044537 44 18 0.0 0.0 0.00 0.00 0.00 80 1025.9
20260502043037 43 14 0.0 0.0 0.00 0.00 0.00 82 1025.8
20260502041530 42 15 0.0 0.0 0.00 0.00 0.00 82 1025.7
20260502040028 42 15 0.0 0.0 0.00 0.00 0.00 80 1025.7
20260502034526 42 15 0.0 0.0 0.00 0.00 0.00 80 1025.6
20260502033027 42 15 0.0 0.9 0.00 0.00 0.00 81 1025.6
20260502031524 42 279 0.0 0.0 0.00 0.00 0.00 79 1025.5
20260502030024 42 279 0.0 0.0 0.00 0.00 0.00 78 1025.5
20260502024526 43 279 0.0 0.0 0.00 0.00 0.00 77 1025.5
20260502023019 44 279 0.0 0.0 0.00 0.00 0.00 75 1025.5
20260502021516 45 279 0.0 0.0 0.00 0.00 0.00 74 1025.5
20260502020013 46 279 0.0 0.0 0.00 0.00 0.00 73 1025.5
20260502014510 47 279 0.0 0.0 0.00 0.00 0.00 71 1025.5
20260502013010 47 279 0.0 0.0 0.00 0.00 0.00 71 1025.5
20260502011505 48 279 0.0 0.0 0.00 0.00 0.00 70 1025.6
20260502010010 48 328 0.0 0.0 0.00 0.00 0.00 70 1025.8
20260502004503 48 323 0.0 0.9 0.00 0.00 0.00 69 1025.8
20260502003100 48 310 0.0 0.0 0.00 0.00 0.00 69 1025.9
20260502001559 48 310 0.0 0.0 0.00 0.00 0.00 68 1025.9
20260502000100 49 310 0.0 0.0 0.00 0.00 0.00 66 1026.0
20260501234557 50 310 0.0 0.0 0.00 0.00 0.00 65 1026.1
20260501233051 51 310 0.0 0.9 0.00 0.00 0.00 64 1026.2
20260501231554 50 224 0.0 0.9 0.00 0.00 0.00 65 1026.1
20260501230047 50 333 0.0 0.0 0.00 0.00 0.00 65 1026.1
20260501224544 51 322 0.0 0.0 0.00 0.00 0.00 64 1026.1
20260501223040 52 322 0.0 0.0 0.00 0.00 0.00 61 1026.1
20260501221551 53 322 0.0 0.9 0.00 0.00 0.00 59 1026.0
20260501220041 53 321 0.0 2.6 0.00 0.00 0.00 59 1026.1
20260501214543 53 320 0.0 0.0 0.00 0.00 0.00 60 1026.0
20260501213035 54 320 0.0 0.0 0.00 0.00 0.00 59 1026.0
20260501211535 54 319 0.0 0.0 0.00 0.00 0.00 59 1026.0
20260501210034 54 323 0.0 0.0 0.00 0.00 0.00 58 1026.0
20260501204534 55 323 0.0 0.0 0.00 0.00 0.00 57 1026.0
20260501203033 55 320 0.0 0.0 0.00 0.00 0.00 58 1026.0
20260501201533 55 320 0.0 0.0 0.00 0.00 0.00 57 1026.0
20260501200038 56 320 0.0 0.0 0.00 0.00 0.00 56 1025.9
20260501194538 56 320 0.0 0.0 0.00 0.00 0.00 55 1025.8
20260501193036 57 320 0.0 0.0 0.00 0.00 0.00 54 1025.9
20260501191540 57 320 0.0 0.0 0.00 0.00 0.00 52 1025.8
20260501190041 59 320 0.0 0.9 0.00 0.00 0.00 50 1025.7
20260501184530 60 320 0.0 0.0 0.00 0.00 0.00 48 1025.6
20260501183030 61 320 0.0 0.0 0.00 0.00 0.00 47 1025.5
20260501181531 64 320 0.0 0.0 0.00 0.00 0.00 43 1025.5
20260501180038 66 320 0.0 0.0 0.00 0.00 0.00 41 1025.3
20260501174528 67 320 0.0 0.0 0.00 0.00 0.00 38 1025.2
20260501173039 68 320 0.0 0.0 0.00 0.00 0.00 36 1025.0
20260501171533 68 318 0.0 0.9 0.00 0.00 0.00 36 1025.0
20260501170026 69 321 0.0 0.9 0.00 0.00 0.00 35 1025.0
20260501164525 69 319 0.0 1.7 0.00 0.00 0.00 35 1025.1
20260501163024 69 347 0.0 3.5 0.00 0.00 0.00 35 1025.2
20260501161526 70 299 0.0 2.6 0.00 0.00 0.00 35 1025.3
20260501160023 70 344 0.0 5.2 0.00 0.00 0.00 35 1025.4
20260501154523 71 134 0.0 0.9 0.00 0.00 0.00 34 1025.5
20260501153044 71 317 0.0 3.5 0.00 0.00 0.00 34 1025.6
20260501151517 71 103 0.0 0.9 0.00 0.00 0.00 35 1025.8
20260501150015 70 319 0.0 3.5 0.00 0.00 0.00 36 1026.0